Regional Weather Roundup
Issued by NWS Newport/Morehead, NC

Current Version | Previous Version | Graphics & Text | Print | Product List | Glossary On
Versions: 1 2 3 4 5 6 7 8 9 10 11 12 13 14 15 16 17 18 19 20 21 22 23 24 25 26 27 28 29 30 31 32 33 34 35 36 37 38 39 40 41 42 43 44 45 46 47 48 49 50
000
ASUS42 KMHX 251325
RWRMHX
WEATHER ROUNDUP FOR EASTERN NORTH CAROLINA
NATIONAL WEATHER SERVICE NEWPORT/MOREHEAD CITY NC
900 AM EDT THU MAY 25 2017

NOTE: "FAIR" INDICATES FEW OR NO CLOUDS BELOW 12,000 FEET
WITH NO SIGNIFICANT WEATHER AND/OR OBSTRUCTIONS TO VISIBILITY

NCZ015>017-031-032-045>047-102-103-251400-
NORTH COAST

CITY           SKY/WX    TMP DP  RH WIND       PRES   REMARKS
EDENTON        CLOUDY    74  69  85 SW12      29.57R
ELIZABETH CITY PTSUNNY   73  71  93 S12       29.56R
KITTY HAWK     PTSUNNY   72  72  99 SW7G17    29.58R
MANTEO         PTSUNNY   72  68  87 SW16      29.59R

$$

NCZ045>047-081-094-103-104-251400-
CENTRAL COAST

CITY           SKY/WX    TMP DP  RH WIND       PRES   REMARKS
FRISCO         NOT AVBL

$$

NCZ095-097-098-100-101-251400-
SOUTHERN COAST

CITY           SKY/WX    TMP DP  RH WIND       PRES   REMARKS
BEAUFORT       MOSUNNY   76  68  76 SW23G30   29.60R
CEDAR ISLAND   NOT AVBL
JACKSONVILLE   MOSUNNY   73  66  78 SW15G23   29.59R
PINEY ISLAND   CLOUDY   N/A N/A N/A SW17G29   29.59S
WILMINGTON     MOSUNNY   74  65  73 SW15G24   29.61R


$$

NCZ011>013-027>030-043-044-078>080-089-090>093-098-251400-
COASTAL PLAIN

CITY           SKY/WX    TMP DP  RH WIND       PRES   REMARKS
AHOSKIE          N/A     70  67  89 S3        29.56R
CLINTON        MOSUNNY   72  64  77 SW12G17   29.60R
ELIZABETHTOWN  MOSUNNY   71  63  74 SW12G17   29.61R
GOLDSBORO      PTSUNNY   73  66  78 SW16      29.56R
GREENVILLE     CLOUDY    73  70  88 W8        29.60S FOG
HAVELOCK       MOSUNNY   75  66  73 SW17G26   29.60R
KENANSVILLE    PTSUNNY   72  64  78 SW14G25   29.59R
KINSTON        CLOUDY    73  68  83 S14G21    29.58R
NEW BERN       MOSUNNY   73  67  81 SW17G23   29.60R
RICHLANDS      CLOUDY    72  67  84 SW10      29.60R
ROCKY MOUNT    MOSUNNY   70  65  84 S8        29.56R
WASHINGTON     CLOUDY    71  67  87 SW10G16   29.57R
WHITEVILLE     PTSUNNY   71  63  76 SW13      29.62R

$$

AMZ130-135-150-152-154-156-158-170-250-252-270-ANZ085-086-088-633-658-670-251400-
MARINE OBSERVATIONS

STATION/POSITION TIME  TEMP    WIND        PRES    WAVE   SWELL
                       AIR SEA DIR/SP/G            HT/PER HT/PER
                 (UTC) (F)     (DEG/KT/KT) (MB)    (FT/S) (FT/S)
CHESAPEAKE LIGHT NOT AVBL
64 E VA BEACH    1250   68 65  210/ 16/ 19 1001.4    5/ 7   2/ 8
DUCK             1300   72 63  200/ 14/ 16 1000.9
2 E DUCK         1300      65                N/A     4/ 7
OREGON INLET     1300   73 69  210/ 14/ 17 1002.0
13E OREGON INLT  1248      65                N/A     6/ 7   3/ 7
HATTERAS CG      1300   75 73  220/ 12/ 15 1002.5
DIAMOND BUOY     1250   77 78  230/ 19/ 23 1002.7    7/ 7   2/13
CAPE LOOKOUT     1300   76     220/ 13/ 16 1002.2
BEAUFORT LAB     1300   75 72  230/  8/ 14 1001.6
30 SE NEW RVR IN 1308   75 75  240/ 27/ 33 1002.6
30 SE NEW RVR IN 1313      75                N/A    11/ 8   2/11
27 SE WRIGHTSVLE 1308   73 75  230/ 23/ 31 1002.6
5 SE WRIGHTSVLE  1308   73 74  240/ 21/ 29 1002.3
225 S CAPE HAT   1250   76 76  200/ 23/ 29 1008.6   10/ 7   2/12
41 SE CHARLESTON 1310   72 76  240/ 23/ 29 1005.6

$$



USA.gov is the U.S. government's official web portal to all federal, state and local government web resources and services.